RH
45 52 73 53 53 50 55 60 72 70 71 68 69 74 73 61 62 66 70 70 63 78 86 77 80 79 78 80 78 73 74 71 69 69 70 67 77 78 74 63 46 44 78
32 46 66 42 49 52 51 54 57 55 56 47 58 71 69 63 65 65 69 72 75 73 76 78 84 90 75 72 70 67 66 57 52 48 55 62 68 74 79 66 53 45 54
33 46 49 38 47 51 52 54 53 53 46 53 59 61 57 58 68 63 71 74 71 71 80 81 81 79 76 73 68 63 59 56 52 47 35 35 59 70 75 81 60 55 59
36 47 49 38 43 52 54 54 54 52 49 57 61 55 51 53 57 67 71 68 80 77 82 73 79 80 75 62 53 48 43 39 33 42 63 68 69 69 72 78 75 56 70
38 45 50 42 39 47 49 41 48 51 56 60 54 55 63 72 73 74 70 71 77 68 68 66 67 63 60 61 59 54 48 48 56 74 75 77 82 89 84 69 67 61 75
41 42 51 46 42 42 48 41 46 50 60 57 55 62 66 72 74 75 70 75 71 57 58 64 68 69 69 66 60 57 52 57 66 82 80 62 66 79 74 67 64 64 72
39 44 53 51 44 42 48 44 45 50 62 60 64 66 70 72 74 73 70 75 61 56 56 65 72 78 77 72 69 70 59 63 72 80 69 60 49 39 43 39 61 68 77
38 46 56 55 48 46 57 48 49 55 59 70 70 70 74 72 71 71 71 66 59 57 63 71 74 75 62 47 48 56 69 49 61 63 68 76 59 51 51 39 70 70 87
44 52 60 60 54 55 62 54 56 84 61 72 69 71 76 75 72 74 77 66 61 61 66 78 76 73 59 38 35 54 69 49 43 72 86 89 66 64 50 57 75 79 90
61 54 60 64 60 64 70 62 88 91 68 71 69 72 73 74 72 76 77 68 65 66 68 72 73 74 69 49 39 46 49 62 52 80 88 93 75 71 64 64 68 71 84
92 83 68 70 68 70 80 74 86 84 80 76 74 75 83 83 79 82 78 72 71 70 69 68 71 74 74 67 50 33 59 60 62 76 89 94 77 53 42 49 75 74 62
96 95 91 80 77 72 81 86 83 83 81 75 76 79 86 85 84 84 82 77 76 72 69 67 72 73 82 82 62 44 55 61 77 84 94 96 80 60 48 55 62 71 67
82 99 92 85 75 69 75 85 91 85 82 81 76 81 86 86 87 90 83 81 77 73 71 70 72 75 86 86 82 63 44 70 76 82 86 94 83 67 56 61 58 66 72
91 99 100 98 90 76 78 80 86 87 82 83 81 81 83 86 88 90 82 76 77 77 76 72 76 79 91 89 88 73 52 54 68 70 75 80 80 74 76 76 65 55 68
66 81 99 98 95 87 77 80 80 85 83 82 82 82 81 84 90 89 80 78 81 82 78 78 79 78 88 86 90 74 64 52 59 66 72 76 81 81 80 73 58 40 64
59 56 89 99 96 84 80 77 80 82 85 82 84 84 82 81 86 90 80 79 85 83 80 81 79 82 85 86 87 79 72 70 66 74 78 82 85 88 88 81 80 51 38
57 58 60 60 77 80 78 85 82 84 88 84 84 86 84 81 89 84 84 83 84 85 85 84 82 90 87 85 84 80 76 74 74 76 79 82 86 85 88 96 94 85 77
54 59 58 65 58 74 75 77 84 86 92 84 85 85 83 83 88 88 86 83 81 90 90 82 85 90 89 83 82 80 78 79 78 80 82 84 83 88 92 99 98 94 82
76 58 57 64 57 66 74 74 87 93 100 88 87 86 87 91 93 91 89 77 86 90 89 88 89 89 86 84 86 82 77 71 72 75 76 80 84 92 94 99 100 98 93
74 70 62 61 59 66 71 96 96 100 100 93 92 85 90 87 94 91 90 80 91 90 89 93 92 92 84 82 85 84 77 71 72 75 78 85 88 89 98 99 99 99 98
77 73 83 72 66 67 97 100 100 98 100 100 91 99 100 100 100 100 100 84 89 92 93 93 93 88 88 86 80 84 84 88 91 93 89 81 96 99 100 93 99 99 100
94 90 88 90 82 74 99 100 91 99 82 100 100 99 99 98 99 100 100 96 94 99 100 94 89 83 79 82 84 80 99 100 100 99 95 98 100 99 98 99 99 97 100
95 92 89 85 89 95 99 98 99 99 86 100 99 99 98 99 98 98 100 97 96 99 99 94 87 82 72 82 87 81 96 95 99 100 98 99 100 97 98 98 99 99 100
95 89 84 78 79 90 94 96 94 100 98 97 97 99 97 98 98 96 95 98 91 95 100 94 88 86 78 75 88 85 74 77 93 99 100 99 99 100 100 100 97 100 100
89 93 78 71 68 70 86 78 86 98 100 99 100 100 89 92 96 92 91 92 94 94 91 95 92 91 84 81 79 80 78 77 79 86 99 99 100 99 100 100 100 100 100
93 100 90 80 72 78 77 88 86 84 88 99 98 100 95 83 93 94 93 88 89 96 93 92 96 97 90 86 87 76 68 68 72 73 73 99 99 97 100 100 100 100 96
Wind_Speed
32 32 29 28 27 26 25 24 22 18 18 17 17 17 16 19 20 19 17 16 16 17 18 20 20 23 23 23 24 24 24 24 23 23 22 23 22 24 24 24 24 25 24
35 34 31 29 28 27 26 23 21 20 18 18 18 18 18 20 20 18 18 19 19 17 20 21 21 22 23 24 23 22 22 20 20 20 20 20 21 21 22 22 24 24 22
35 35 32 30 29 27 26 24 22 21 20 19 20 20 20 20 19 19 19 19 19 20 21 21 22 24 23 22 20 19 18 18 17 17 17 18 19 19 20 21 23 22 21
36 36 34 32 30 27 26 24 23 23 21 21 22 21 21 20 20 20 20 20 21 21 21 22 23 22 20 18 17 16 16 16 16 19 21 21 20 19 19 19 19 20 21
37 35 35 33 31 29 27 25 25 24 23 22 22 22 21 21 21 20 20 21 21 20 21 21 20 19 18 17 16 15 15 16 18 21 21 21 21 20 20 17 17 19 20
39 36 36 34 32 30 28 26 26 25 25 24 23 22 21 22 22 21 21 20 19 20 20 19 19 17 16 14 14 15 16 17 18 19 18 17 17 15 13 13 15 18 20
39 37 38 36 33 31 28 27 26 26 26 24 22 22 23 23 22 22 21 19 19 21 20 19 18 16 14 13 13 14 15 17 17 17 15 15 15 14 13 13 16 17 19
41 38 38 35 32 31 29 28 27 27 26 24 22 22 23 24 23 22 20 19 21 20 19 19 16 14 12 12 13 15 16 15 16 16 16 16 16 16 14 17 19 18 19
40 39 38 36 32 31 30 29 27 25 27 25 23 23 23 23 23 22 20 21 21 21 19 17 15 13 13 13 14 17 16 15 17 17 16 17 15 13 15 19 18 19 19
41 38 39 38 35 32 30 29 26 26 27 25 23 23 23 22 22 22 21 21 22 21 19 17 15 14 14 14 14 16 15 16 18 17 16 15 14 13 15 19 17 17 16
37 38 39 39 36 34 30 29 28 27 26 25 23 23 23 24 23 23 22 22 22 21 20 18 15 14 13 14 14 15 16 16 17 17 15 14 12 14 16 19 19 16 14
39 39 39 40 37 35 33 30 29 28 27 27 25 25 25 25 25 24 23 23 23 22 20 17 16 13 13 13 14 14 15 16 16 16 17 14 13 14 16 17 17 15 14
42 41 39 41 39 38 36 34 32 31 30 27 26 26 27 27 26 26 25 25 25 22 19 18 17 14 14 13 14 13 15 16 16 16 17 13 11 13 14 14 13 12 13
38 41 39 40 39 39 38 37 35 33 32 30 29 29 29 29 29 28 27 27 24 22 21 20 18 16 14 13 14 14 15 16 15 15 15 15 11 9 11 11 10 12 13
35 39 39 39 40 40 39 37 35 34 33 32 31 30 30 31 31 30 28 27 24 24 23 22 20 18 16 16 16 15 14 15 14 14 14 14 13 9 9 9 10 11 15
34 35 42 39 40 41 39 39 38 36 35 34 33 32 32 32 33 31 29 27 26 26 24 22 20 19 18 17 18 16 14 14 14 13 13 13 12 12 9 7 9 12 14
34 33 34 35 39 41 42 41 39 38 36 36 35 34 33 33 33 31 30 28 27 27 26 24 22 21 19 19 18 17 16 15 14 13 12 12 12 12 10 10 11 13 15
36 37 32 35 35 41 42 41 39 38 36 36 37 36 35 34 33 33 31 30 28 29 28 26 24 23 21 20 20 19 17 15 13 12 13 12 11 11 10 13 14 19 18
36 35 39 37 38 42 42 42 41 38 38 38 38 37 36 35 34 35 33 32 31 31 29 27 26 23 24 22 21 20 17 16 12 14 14 13 12 12 11 15 10 16 22
31 29 38 39 40 41 41 41 38 37 38 39 37 37 37 38 37 36 33 32 32 32 31 29 27 26 24 23 22 20 17 15 13 14 14 14 14 15 14 18 12 19 22
29 30 30 38 39 40 39 40 39 40 39 40 39 39 37 35 35 34 33 32 33 34 32 31 30 29 27 25 23 19 15 13 12 12 12 10 10 14 14 14 24 24 22
20 23 26 30 32 37 38 39 37 40 42 41 42 40 36 37 34 37 36 35 36 37 36 34 33 33 30 29 25 21 13 11 13 12 10 11 12 15 14 22 27 26 24
12 23 21 24 26 30 31 29 34 37 37 37 39 39 39 39 38 36 37 37 36 38 38 37 36 34 34 31 27 19 13 10 19 14 13 14 16 16 17 20 34 24 22
10 11 19 21 20 22 26 30 33 32 34 40 41 40 39 40 39 38 37 38 37 40 40 39 37 37 35 33 33 33 24 18 20 16 19 20 19 21 30 32 25 24 21
15 2 11 17 19 20 20 28 31 31 33 35 37 41 41 41 41 40 40 40 39 41 40 41 40 39 37 36 37 36 31 22 29 27 29 28 29 27 30 26 24 23 21
17 9 7 12 17 20 23 23 29 32 32 33 31 40 45 43 44 43 43 43 41 43 42 43 42 40 39 39 39 38 36 34 30 29 27 37 33 30 29 27 27 25 22
Wind_Direction
178 169 163 170 172 173 174 175 174 173 169 165 158 154 150 147 145 140 136 134 129 120 116 114 116 118 119 116 115 113 114 111 108 106 105 102 97 99 100 97 92 93 94
172 169 166 170 174 175 176 178 177 176 174 167 162 158 153 150 148 145 138 132 128 124 118 122 122 121 121 118 116 116 116 113 112 111 110 108 103 102 101 97 94 94 101
173 168 166 169 172 175 176 178 177 174 169 164 160 157 153 153 151 148 142 136 129 129 129 128 129 126 126 123 121 120 118 116 114 113 112 111 110 108 104 97 93 91 94
174 170 168 169 171 174 176 177 174 172 167 162 158 156 154 153 153 151 146 140 135 138 136 132 130 130 129 127 124 122 119 116 114 115 113 110 110 111 113 105 95 93 95
178 172 170 170 172 175 177 176 173 170 168 164 159 156 152 152 151 151 149 145 141 137 136 136 134 134 129 127 125 122 119 120 122 122 117 113 114 114 111 105 100 99 98
179 175 173 172 174 175 176 175 172 170 169 166 162 160 158 157 155 152 150 148 147 143 140 138 133 129 128 126 125 123 123 126 129 126 117 112 118 115 111 109 109 106 105
181 178 175 176 174 174 176 176 173 171 170 166 166 164 160 159 158 156 155 154 151 146 143 138 133 130 128 128 129 131 130 131 132 126 122 121 116 113 111 112 118 116 113
183 179 177 178 176 174 176 175 176 173 171 169 169 166 163 163 161 160 160 158 154 151 147 143 138 130 123 126 134 138 135 137 138 130 119 112 114 114 108 114 117 120 118
186 180 179 179 178 176 175 178 177 173 173 173 173 170 168 167 165 164 163 161 160 157 153 146 140 130 125 123 128 139 138 137 142 133 125 124 124 111 115 121 120 124 121
186 183 181 181 179 178 176 179 175 174 176 177 178 174 172 170 168 168 168 167 166 162 158 152 148 140 135 127 127 141 139 137 143 136 132 134 125 115 117 128 126 133 127
183 184 184 183 181 178 176 178 178 180 180 179 179 176 171 174 175 175 174 170 171 168 164 162 156 148 144 133 130 140 145 144 144 139 135 139 127 118 118 129 131 129 134
187 187 187 185 183 181 178 177 181 182 183 183 181 178 176 178 180 179 175 175 177 176 173 166 160 154 152 146 138 144 152 148 143 140 136 141 129 125 123 128 132 130 129
190 188 191 188 186 185 182 181 184 186 186 186 185 180 181 183 183 184 180 180 183 183 177 172 168 164 162 159 154 149 157 154 151 145 140 145 140 133 134 132 134 136 137
191 191 195 192 188 189 185 187 189 190 189 188 189 187 187 187 189 189 187 187 186 183 183 179 176 170 169 170 167 162 165 165 160 156 153 150 154 151 152 147 147 153 152
202 194 194 195 192 191 189 190 193 194 194 191 192 192 193 194 193 195 192 191 186 187 187 185 181 177 176 175 173 173 170 171 169 167 164 162 159 172 168 158 149 152 160
208 205 198 196 198 196 192 195 195 197 198 195 194 198 199 201 200 198 196 191 188 190 190 190 188 183 181 179 179 179 177 174 173 173 171 170 171 169 172 177 167 153 150
209 208 209 207 204 201 197 197 199 200 199 198 198 200 204 205 204 203 197 195 193 192 192 192 190 188 187 184 185 183 182 179 178 183 184 187 185 190 200 199 186 171 161
212 205 212 215 215 208 202 202 203 205 202 203 202 203 207 208 209 207 201 201 195 196 195 195 194 192 191 189 188 188 186 188 190 198 197 201 196 201 203 196 200 169 162
213 211 210 212 217 211 207 207 205 207 204 206 206 207 208 210 209 207 205 202 198 197 197 199 197 199 192 189 190 192 193 195 207 205 204 201 206 210 203 195 199 182 172
204 218 217 221 216 212 209 209 208 207 204 210 209 211 211 214 211 208 206 204 201 198 198 199 202 195 196 194 191 197 204 211 213 209 213 214 216 214 203 211 201 173 174
204 208 215 221 216 214 206 204 206 210 208 210 212 214 214 219 216 210 210 208 204 203 202 201 197 198 193 196 198 194 201 214 210 212 221 209 204 198 196 183 172 180 184
185 196 205 212 223 214 206 209 216 213 217 215 212 214 213 218 220 217 213 211 209 205 204 203 203 200 202 199 202 194 168 185 189 193 196 184 173 186 196 184 194 190 185
149 193 207 208 206 217 219 220 217 214 222 216 219 215 214 218 222 223 217 215 214 213 211 208 210 212 207 205 205 191 170 191 185 189 190 181 182 192 198 203 187 187 192
46 165 189 203 208 210 218 218 227 218 217 216 229 219 218 220 223 223 225 219 221 219 216 215 214 216 218 218 206 208 211 203 180 179 190 185 184 182 183 177 188 190 195
16 350 190 198 203 212 227 232 232 224 224 234 229 226 220 225 223 225 225 225 225 224 224 221 220 219 223 226 221 214 211 206 203 183 180 183 182 192 188 188 198 195 195
17 352 229 208 207 212 217 233 237 235 234 231 236 225 230 225 225 226 227 229 229 227 227 227 226 227 228 227 228 227 222 211 206 203 196 187 189 194 194 198 199 201 202